Weather History for West Palm Beach, FL

Change the Weather History Date:

Monday, April 28, 2014

  Actual Average Record
Temperature  
Mean Temperature 83 °F 76 °F  
Max Temperature 89 °F 83 °F 92 °F (1965)
Min Temperature 77 °F 68 °F 51 °F (1913)
Degree Days  
Heating Degree Days 0 0  
Month to date heating degree days 0 0  
Since 1 July heating degree days 122 229  
Cooling Degree Days 18 11  
Month to date cooling degree days 303 244  
Year to date cooling degree days 851 672  
Growing Degree Days 33 (Base 50)    
Moisture  
Dew Point 69 °F    
Average Humidity 67    
Maximum Humidity 79    
Minimum Humidity 55    
Precipitation  
Precipitation 0.00 in 0.10 in 1.48 in (1930)
Month to date precipitation 1.04 3.48  
Year to date precipitation 14.92 14.02  
Snow  
Snow 0.00 in - - ()
Month to date snowfall 0.0  
Since 1 July snowfall 0.0  
Snow Depth 0.00 in    
Sea Level Pressure  
Sea Level Pressure 29.94 in    
Wind  
Wind Speed 13 mph (SE)    
Max Wind Speed 18 mph    
Max Gust Speed 27 mph    
Visibility 10 miles    
Events      
T = Trace of Precipitation, MM = Missing Value Source: NWS Daily Summary

Daily Weather History Graph

Daily Weather History Graph

Search for Another Location

Airport:

Trip Planner

Search our weather history database for the weather conditions in past years. The results will help you decide how hot, cold, wet, or windy it might be!

Date:

Astronomy

Apr. 28, 2014 Rise Set
Actual Time 6:44 AM EDT 7:51 PM EDT
Civil Twilight 6:20 AM EDT 8:15 PM EDT
Nautical Twilight 5:51 AM EDT 8:44 PM EDT
Astronomical Twilight 5:22 AM EDT 9:14 PM EDT
Moon 6:16 AM EDT (4/28) 7:30 PM EDT (4/28)
Length of Visible Light 13h 55m
Length of Day
13h 06m
Waning Crescent, 0% of the Moon is Illuminated
Apr 28
Waning Crescent
Apr 29
New
May 6
First Quarter
May 14
Full
May 21
Last Quarter

Hourly Weather History & Observations

Time (EDT) Temp. Heat Index Dew Point Humidity Pressure Visibility Wind Dir Wind Speed Gust Speed Precip Events Conditions
12:53 AM 79.0 °F - 64.9 °F 62% 29.99 in 10.0 mi SE 11.5 mph - N/A   Scattered Clouds
1:53 AM 79.0 °F - 66.0 °F 64% 29.96 in 10.0 mi SE 11.5 mph - N/A   Partly Cloudy
2:53 AM 78.1 °F - 69.1 °F 74% 29.94 in 10.0 mi SE 13.8 mph - N/A   Partly Cloudy
3:53 AM 78.1 °F - 68.0 °F 71% 29.94 in 10.0 mi SE 13.8 mph - N/A   Partly Cloudy
4:53 AM 78.1 °F - 66.0 °F 66% 29.93 in 10.0 mi SE 10.4 mph - N/A   Scattered Clouds
5:53 AM 77.0 °F - 69.1 °F 76% 29.94 in 10.0 mi SE 9.2 mph - N/A   Scattered Clouds
6:53 AM 78.1 °F - 69.1 °F 74% 29.95 in 10.0 mi SSE 9.2 mph - N/A   Mostly Cloudy
7:53 AM 80.1 °F 83.6 °F 71.1 °F 74% 29.96 in 10.0 mi SE 11.5 mph - N/A   Mostly Cloudy
8:53 AM 82.0 °F 86.3 °F 71.1 °F 69% 29.98 in 10.0 mi SSE 16.1 mph - N/A   Mostly Cloudy
9:53 AM 84.0 °F 89.0 °F 71.1 °F 65% 29.99 in 10.0 mi SSE 15.0 mph - N/A   Mostly Cloudy
10:53 AM 86.0 °F 91.5 °F 71.1 °F 61% 29.98 in 10.0 mi SSE 11.5 mph - N/A   Mostly Cloudy
11:53 AM 88.0 °F 92.9 °F 70.0 °F 55% 29.98 in 10.0 mi SSE 12.7 mph - N/A   Mostly Cloudy
12:53 PM 88.0 °F 92.9 °F 70.0 °F 55% 29.96 in 10.0 mi SSE 17.3 mph 26.5 mph N/A   Mostly Cloudy
1:53 PM 88.0 °F 92.1 °F 69.1 °F 53% 29.94 in 10.0 mi SE 19.6 mph 24.2 mph N/A   Scattered Clouds
2:53 PM 87.1 °F 91.3 °F 69.1 °F 55% 29.93 in 10.0 mi SE 15.0 mph - N/A   Mostly Cloudy
3:53 PM 86.0 °F 89.4 °F 68.0 °F 55% 29.92 in 10.0 mi SSE 12.7 mph - N/A   Scattered Clouds
4:53 PM 86.0 °F 89.4 °F 68.0 °F 55% 29.92 in 10.0 mi SE 12.7 mph - N/A   Mostly Cloudy
5:53 PM 84.9 °F 88.2 °F 68.0 °F 57% 29.91 in 10.0 mi SSE 11.5 mph - N/A   Scattered Clouds
6:53 PM 82.0 °F 85.5 °F 69.1 °F 65% 29.91 in 10.0 mi SE 12.7 mph - N/A   Scattered Clouds
7:53 PM 80.1 °F 83.6 °F 71.1 °F 74% 29.91 in 10.0 mi ESE 12.7 mph - N/A   Mostly Cloudy
8:53 PM 80.1 °F 83.8 °F 72.0 °F 76% 29.93 in 10.0 mi ESE 13.8 mph - N/A   Mostly Cloudy
9:53 PM 80.1 °F 83.8 °F 72.0 °F 76% 29.94 in 10.0 mi SE 10.4 mph - N/A   Scattered Clouds
10:53 PM 79.0 °F - 72.0 °F 79% 29.94 in 10.0 mi SE 13.8 mph - N/A   Scattered Clouds
11:53 PM 79.0 °F - 71.1 °F 77% 29.93 in 10.0 mi SE 10.4 mph - N/A   Scattered Clouds